,,,PA_Meas_PMT16A,,PR_Meas_QMR101_102,,RH_Meas_QMH101,,SR_Meas_QMS101,,TA_Meas_QMH101,,GenWind,,GenWind,
date,time,status,PA,status,PR,status,RH,status,SR,status,TA,status,DirAvg,status,SpdAvg,
2011-12-13, 00:00:05,VALID,999.421,VALID,0,VALID,91.7843,VALID,0,VALID,23.7597,VALID,65,VALID,0.394531,
2011-12-13, 00:01:05,VALID,999.405,VALID,0,VALID,91.8683,VALID,0,VALID,23.7402,VALID,65,VALID,0.206641,
2011-12-13, 00:02:05,VALID,999.414,VALID,0,VALID,91.9217,VALID,0,VALID,23.7207,VALID,65,VALID,0,
2011-12-13, 00:03:05,VALID,999.408,VALID,0,VALID,92.0132,VALID,0,VALID,23.6799,VALID,65,VALID,0,
2011-12-13, 00:04:05,VALID,999.387,VALID,0,VALID,92.2345,VALID,0,VALID,23.7012,VALID,65,VALID,0.00351562,
2011-12-13, 00:05:05,VALID,999.343,VALID,0,VALID,92.3489,VALID,0,VALID,23.7012,VALID,65,VALID,0,
2011-12-13, 00:06:05,VALID,999.346,VALID,0,VALID,92.4481,VALID,0,VALID,23.7012,VALID,65,VALID,0,
2011-12-13, 00:07:05,VALID,999.318,VALID,0,VALID,92.5168,VALID,0,VALID,23.7207,VALID,65,VALID,0,
2011-12-13, 00:08:05,VALID,999.338,VALID,0,VALID,92.5168,VALID,0,VALID,23.7207,VALID,65,VALID,0.0375,
2011-12-13, 00:09:05,VALID,999.322,VALID,0,VALID,92.471,VALID,0,VALID,23.7207,VALID,117,VALID,0.802734,
2011-12-13, 00:10:05,VALID,999.304,VALID,0,VALID,92.3871,VALID,0,VALID,23.7616,VALID,121,VALID,0.718359,
2011-12-13, 00:11:05,VALID,999.316,VALID,0,VALID,92.2726,VALID,0,VALID,23.7811,VALID,121,VALID,0.773828,
2011-12-13, 00:12:05,VALID,999.31,VALID,0,VALID,92.2268,VALID,0,VALID,23.8006,VALID,128,VALID,0.691797,
2011-12-13, 00:13:05,VALID,999.31,VALID,0,VALID,92.2421,VALID,0,VALID,23.8201,VALID,128,VALID,0.730469,
2011-12-13, 00:14:05,VALID,999.296,VALID,0,VALID,92.2955,VALID,0,VALID,23.8591,VALID,147,VALID,0.749609,
2011-12-13, 00:15:05,VALID,999.29,VALID,0,VALID,92.3337,VALID,0,VALID,23.8573,VALID,147,VALID,0.925391,
2011-12-13, 00:16:05,VALID,999.319,VALID,0,VALID,92.3642,VALID,0,VALID,23.8573,VALID,139,VALID,0.802344,
2011-12-13, 00:17:05,VALID,999.283,VALID,0,VALID,92.3337,VALID,0,VALID,23.8768,VALID,139,VALID,0.845703,
2011-12-13, 00:18:05,VALID,999.284,VALID,0,VALID,92.3642,VALID,0,VALID,23.8982,VALID,139,VALID,0.802344,
2011-12-13, 00:19:05,VALID,999.282,VALID,0,VALID,92.41,VALID,0,VALID,23.8963,VALID,139,VALID,0.788281,
2011-12-13, 00:20:05,VALID,999.273,VALID,0,VALID,92.4023,VALID,0,VALID,23.8963,VALID,139,VALID,0.783594,
2011-12-13, 00:21:05,VALID,999.258,VALID,0,VALID,92.3642,VALID,0,VALID,23.8963,VALID,139,VALID,0.75625,
2011-12-13, 00:22:05,VALID,999.266,VALID,0,VALID,92.3794,VALID,0,VALID,23.8963,VALID,139,VALID,0.710156,
2011-12-13, 00:23:05,VALID,999.233,VALID,0,VALID,92.3871,VALID,0,VALID,23.8982,VALID,139,VALID,0.595703,
2011-12-13, 00:24:05,VALID,999.223,VALID,0,VALID,92.3566,VALID,0,VALID,23.875,VALID,139,VALID,0.667188,
2011-12-13, 00:25:05,VALID,999.206,VALID,0,VALID,92.3794,VALID,0,VALID,23.8963,VALID,139,VALID,0.782031,
2011-12-13, 00:26:04,VALID,999.187,VALID,0,VALID,92.3871,VALID,0,VALID,23.875,VALID,139,VALID,0.848828,
2011-12-13, 00:27:04,VALID,999.178,VALID,0,VALID,92.4252,VALID,0,VALID,23.8945,VALID,139,VALID,0.79375,
2011-12-13, 00:28:04,VALID,999.135,VALID,0,VALID,92.5091,VALID,0,VALID,23.8945,VALID,139,VALID,0.649609,
2011-12-13, 00:29:04,VALID,999.123,VALID,0,VALID,92.532,VALID,0,VALID,23.8945,VALID,139,VALID,0.455469,
2011-12-13, 00:30:04,VALID,999.098,VALID,0,VALID,92.5168,VALID,0,VALID,23.8963,VALID,139,VALID,0.336719,
2011-12-13, 00:31:04,VALID,999.109,VALID,0,VALID,92.5397,VALID,0.104696,VALID,23.8963,VALID,139,VALID,0.385938,
2011-12-13, 00:32:04,VALID,999.099,VALID,0,VALID,92.5854,VALID,0,VALID,23.8768,VALID,139,VALID,0.497266,
2011-12-13, 00:33:04,VALID,999.096,VALID,0,VALID,92.6388,VALID,0,VALID,23.8768,VALID,120,VALID,0.699219,
2011-12-13, 00:34:04,VALID,999.032,VALID,0,VALID,92.6617,VALID,0,VALID,23.8768,VALID,106,VALID,0.58125,
2011-12-13, 00:35:04,VALID,999.023,VALID,0,VALID,92.7151,VALID,0,VALID,23.875,VALID,106,VALID,0.621875,
2011-12-13, 00:36:04,VALID,998.982,VALID,0,VALID,92.7228,VALID,0.104696,VALID,23.8555,VALID,106,VALID,0.557422,
2011-12-13, 00:37:04,VALID,998.956,VALID,0,VALID,92.677,VALID,0,VALID,23.8768,VALID,106,VALID,0.598828,
2011-12-13, 00:38:04,VALID,998.928,VALID,0,VALID,92.6083,VALID,0,VALID,23.8768,VALID,88,VALID,0.469922,
2011-12-13, 00:39:04,VALID,998.872,VALID,0,VALID,92.5244,VALID,0,VALID,23.8555,VALID,88,VALID,0.416016,
2011-12-13, 00:40:04,VALID,998.877,VALID,0,VALID,92.4481,VALID,0,VALID,23.836,VALID,88,VALID,0.330078,
2011-12-13, 00:41:04,VALID,998.838,VALID,0,VALID,92.3947,VALID,0,VALID,23.8573,VALID,88,VALID,0.44375,
2011-12-13, 00:42:04,VALID,998.848,VALID,0,VALID,92.3642,VALID,0,VALID,23.8378,VALID,88,VALID,0.381641,
2011-12-13, 00:43:04,VALID,998.838,VALID,0,VALID,92.3413,VALID,0,VALID,23.8183,VALID,88,VALID,0.00195313,
2011-12-13, 00:44:04,VALID,998.846,VALID,0,VALID,92.3337,VALID,0,VALID,23.7988,VALID,88,VALID,0,
2011-12-13, 00:45:04,VALID,998.831,VALID,0,VALID,92.3566,VALID,0,VALID,23.7793,VALID,88,VALID,0,
2011-12-13, 00:46:04,VALID,998.819,VALID,0,VALID,92.3413,VALID,0,VALID,23.7793,VALID,88,VALID,0,
2011-12-13, 00:47:04,VALID,998.783,VALID,0,VALID,92.3337,VALID,0,VALID,23.7402,VALID,88,VALID,0,
2011-12-13, 00:48:04,VALID,998.768,VALID,0,VALID,92.3566,VALID,0,VALID,23.7189,VALID,88,VALID,0,
2011-12-13, 00:49:04,VALID,998.743,VALID,0,VALID,92.3642,VALID,0,VALID,23.7012,VALID,88,VALID,0,
2011-12-13, 00:50:04,VALID,998.729,VALID,0,VALID,92.3718,VALID,0,VALID,23.7012,VALID,88,VALID,0,
2011-12-13, 00:51:04,VALID,998.725,VALID,0,VALID,92.4557,VALID,0,VALID,23.6604,VALID,88,VALID,0,
2011-12-13, 00:52:04,VALID,998.691,VALID,0,VALID,92.5473,VALID,0,VALID,23.6622,VALID,88,VALID,0,
2011-12-13, 00:53:04,VALID,998.688,VALID,0,VALID,92.6236,VALID,0,VALID,23.6409,VALID,88,VALID,0.00898437,
2011-12-13, 00:54:04,VALID,998.636,VALID,0,VALID,92.6312,VALID,0,VALID,23.6427,VALID,88,VALID,0.357812,
2011-12-13, 00:55:04,VALID,998.662,VALID,0,VALID,92.616,VALID,0,VALID,23.664,VALID,88,VALID,0.132813,
2011-12-13, 00:56:04,VALID,998.647,VALID,0,VALID,92.5854,VALID,0,VALID,23.6835,VALID,88,VALID,0,
2011-12-13, 00:57:04,VALID,998.624,VALID,0,VALID,92.5397,VALID,0,VALID,23.6835,VALID,88,VALID,0,
2011-12-13, 00:58:04,VALID,998.618,VALID,0,VALID,92.4786,VALID,0,VALID,23.6427,VALID,88,VALID,0,
2011-12-13, 00:59:04,VALID,998.583,VALID,0,VALID,92.4328,VALID,0,VALID,23.6427,VALID,88,VALID,0,
2011-12-13, 01:00:04,VALID,998.587,VALID,0,VALID,92.4481,VALID,0,VALID,23.664,VALID,88,VALID,0,
2011-12-13, 01:01:04,VALID,998.578,VALID,0,VALID,92.5015,VALID,0,VALID,23.6427,VALID,88,VALID,0,
2011-12-13, 01:02:04,VALID,998.543,VALID,0,VALID,92.5702,VALID,0,VALID,23.6622,VALID,122,VALID,0.510938,
2011-12-13, 01:03:04,VALID,998.509,VALID,0,VALID,92.5626,VALID,0,VALID,23.7225,VALID,143,VALID,0.08125,
2011-12-13, 01:04:04,VALID,998.485,VALID,0,VALID,92.5549,VALID,0,VALID,23.7207,VALID,152,VALID,0.867969,
2011-12-13, 01:05:04,VALID,998.495,VALID,0,VALID,92.4634,VALID,0,VALID,23.7811,VALID,152,VALID,0.876562,
2011-12-13, 01:06:04,VALID,998.429,VALID,0,VALID,92.3718,VALID,0,VALID,23.8201,VALID,157,VALID,0.899609,
2011-12-13, 01:07:04,VALID,998.442,VALID,0,VALID,92.1887,VALID,0,VALID,23.8396,VALID,157,VALID,0.544922,
2011-12-13, 01:08:04,VALID,998.408,VALID,0,VALID,92.059,VALID,0,VALID,23.8591,VALID,157,VALID,0.751953,
2011-12-13, 01:09:04,VALID,998.395,VALID,0,VALID,91.9903,VALID,0,VALID,23.8768,VALID,157,VALID,0.546094,
2011-12-13, 01:10:04,VALID,998.436,VALID,0,VALID,91.8911,VALID,0,VALID,23.8963,VALID,157,VALID,0.586328,
2011-12-13, 01:11:04,VALID,998.393,VALID,0,VALID,91.8301,VALID,0,VALID,23.9354,VALID,157,VALID,0.258984,
2011-12-13, 01:12:04,VALID,998.387,VALID,0,VALID,91.6699,VALID,0,VALID,23.9549,VALID,157,VALID,0.457422,
2011-12-13, 01:13:04,VALID,998.382,VALID,0,VALID,91.5326,VALID,0,VALID,23.9939,VALID,174,VALID,0.825781,
2011-12-13, 01:14:04,VALID,998.357,VALID,0,VALID,91.3418,VALID,0,VALID,24.0329,VALID,184,VALID,1.2082,
2011-12-13, 01:15:04,VALID,998.35,VALID,0,VALID,91.0748,VALID,0,VALID,24.072,VALID,165,VALID,1.03516,
2011-12-13, 01:16:04,VALID,998.342,VALID,0,VALID,90.7772,VALID,0,VALID,24.1305,VALID,138,VALID,1.11328,
2011-12-13, 01:17:04,VALID,998.369,VALID,0,VALID,90.4797,VALID,0,VALID,24.15,VALID,152,VALID,0.997266,
2011-12-13, 01:18:04,VALID,998.336,VALID,0,VALID,90.2889,VALID,0,VALID,24.1482,VALID,154,VALID,0.855469,
2011-12-13, 01:19:04,VALID,998.336,VALID,0,VALID,90.1516,VALID,0,VALID,24.1482,VALID,149,VALID,0.919531,
2011-12-13, 01:20:04,VALID,998.328,VALID,0,VALID,90.1134,VALID,0,VALID,24.1287,VALID,149,VALID,0.739062,
2011-12-13, 01:21:04,VALID,998.333,VALID,0,VALID,90.1134,VALID,0,VALID,24.15,VALID,148,VALID,0.675781,
2011-12-13, 01:22:04,VALID,998.334,VALID,0,VALID,90.0982,VALID,0,VALID,24.1305,VALID,148,VALID,0.691797,
2011-12-13, 01:23:04,VALID,998.307,VALID,0,VALID,90.1974,VALID,0,VALID,24.0915,VALID,148,VALID,0.667188,
2011-12-13, 01:24:04,VALID,998.346,VALID,0,VALID,90.4186,VALID,0,VALID,24.072,VALID,148,VALID,0.798437,
2011-12-13, 01:25:04,VALID,998.311,VALID,0,VALID,90.472,VALID,0,VALID,24.0311,VALID,140,VALID,0.880469,
2011-12-13, 01:26:04,VALID,998.314,VALID,0,VALID,90.5865,VALID,0,VALID,24.0329,VALID,137,VALID,0.85625,
2011-12-13, 01:27:04,VALID,998.321,VALID,0,VALID,90.7085,VALID,0,VALID,24.0329,VALID,127,VALID,0.905469,
2011-12-13, 01:28:04,VALID,998.267,VALID,0,VALID,90.8383,VALID,0,VALID,23.9939,VALID,117,VALID,0.889844,
2011-12-13, 01:29:04,VALID,998.27,VALID,0,VALID,90.9832,VALID,0,VALID,23.9531,VALID,110,VALID,0.816016,
2011-12-13, 01:30:04,VALID,998.268,VALID,0,VALID,91.2426,VALID,0,VALID,23.9744,VALID,97,VALID,0.969141,
2011-12-13, 01:31:04,VALID,998.274,VALID,0,VALID,91.3494,VALID,0,VALID,23.9336,VALID,93,VALID,0.933594,
2011-12-13, 01:32:04,VALID,998.255,VALID,0,VALID,91.441,VALID,0,VALID,23.914,VALID,79,VALID,1.20625,
2011-12-13, 01:33:04,VALID,998.255,VALID,0,VALID,91.586,VALID,0,VALID,23.914,VALID,80,VALID,1.36836,
2011-12-13, 01:34:04,VALID,998.244,VALID,0,VALID,91.647,VALID,0,VALID,23.9159,VALID,69,VALID,1.27617,
2011-12-13, 01:35:04,VALID,998.264,VALID,0,VALID,91.6546,VALID,0,VALID,23.8945,VALID,70,VALID,1.02461,
2011-12-13, 01:36:04,VALID,998.255,VALID,0,VALID,91.6317,VALID,0,VALID,23.8768,VALID,77,VALID,0.730859,
2011-12-13, 01:37:04,VALID,998.236,VALID,0,VALID,91.708,VALID,0,VALID,23.8573,VALID,78,VALID,1.09883,
2011-12-13, 01:38:04,VALID,998.2,VALID,0,VALID,91.8148,VALID,0,VALID,23.8378,VALID,79,VALID,1.08984,
2011-12-13, 01:39:04,VALID,998.234,VALID,0,VALID,91.8988,VALID,0,VALID,23.8165,VALID,86,VALID,1.09648,
2011-12-13, 01:40:04,VALID,998.225,VALID,0,VALID,91.9369,VALID,0,VALID,23.8378,VALID,78,VALID,1.11016,
2011-12-13, 01:41:04,VALID,998.183,VALID,0,VALID,91.9598,VALID,0,VALID,23.8183,VALID,72,VALID,0.990625,
2011-12-13, 01:42:04,VALID,998.2,VALID,0,VALID,91.9369,VALID,0,VALID,23.7988,VALID,67,VALID,1.05664,
2011-12-13, 01:43:04,VALID,998.206,VALID,0,VALID,92.0361,VALID,0,VALID,23.7988,VALID,72,VALID,0.807031,
2011-12-13, 01:44:04,VALID,998.186,VALID,0,VALID,92.0514,VALID,0,VALID,23.7988,VALID,85,VALID,0.49375,
2011-12-13, 01:45:04,VALID,998.173,VALID,0,VALID,92.0743,VALID,0,VALID,23.7775,VALID,87,VALID,0.594922,
2011-12-13, 01:46:04,VALID,998.166,VALID,0,VALID,92.0819,VALID,0,VALID,23.7988,VALID,87,VALID,0.849609,
2011-12-13, 01:47:04,VALID,998.191,VALID,0,VALID,92.0895,VALID,0,VALID,23.7988,VALID,93,VALID,0.863672,
2011-12-13, 01:48:04,VALID,998.177,VALID,0,VALID,92.059,VALID,0,VALID,23.7775,VALID,93,VALID,0.520312,
2011-12-13, 01:49:04,VALID,998.169,VALID,0,VALID,91.998,VALID,0,VALID,23.7988,VALID,82,VALID,0.451953,
2011-12-13, 01:50:04,VALID,998.17,VALID,0,VALID,91.9064,VALID,0,VALID,23.7793,VALID,79,VALID,0.480859,
2011-12-13, 01:51:04,VALID,998.189,VALID,0,VALID,91.853,VALID,0.104696,VALID,23.7793,VALID,76,VALID,0.154687,
2011-12-13, 01:52:04,VALID,998.188,VALID,0,VALID,91.8377,VALID,0,VALID,23.7402,VALID,76,VALID,0,
2011-12-13, 01:53:04,VALID,998.202,VALID,0,VALID,91.8301,VALID,0,VALID,23.7012,VALID,76,VALID,0,
2011-12-13, 01:54:04,VALID,998.22,VALID,0,VALID,91.9064,VALID,0,VALID,23.6817,VALID,76,VALID,0,
2011-12-13, 01:55:04,VALID,998.211,VALID,0,VALID,91.9903,VALID,0.104696,VALID,23.6817,VALID,76,VALID,0,
2011-12-13, 01:56:04,VALID,998.22,VALID,0,VALID,92.0743,VALID,0,VALID,23.6409,VALID,341,VALID,0.369531,
2011-12-13, 01:57:04,VALID,998.211,VALID,0,VALID,92.1658,VALID,0,VALID,23.6409,VALID,323,VALID,0.717188,
2011-12-13, 01:58:04,VALID,998.23,VALID,0,VALID,92.2574,VALID,0,VALID,23.6622,VALID,323,VALID,0.841797,
2011-12-13, 01:59:04,VALID,998.22,VALID,0,VALID,92.3031,VALID,0,VALID,23.6622,VALID,323,VALID,0.871094,
2011-12-13, 02:00:04,VALID,998.21,VALID,0,VALID,92.3108,VALID,0,VALID,23.6817,VALID,341,VALID,0.80625,
2011-12-13, 02:01:04,VALID,998.244,VALID,0,VALID,92.2879,VALID,0,VALID,23.6799,VALID,354,VALID,0.639063,
2011-12-13, 02:02:04,VALID,998.239,VALID,0,VALID,92.2421,VALID,0.104696,VALID,23.7012,VALID,354,VALID,0.770312,
2011-12-13, 02:03:04,VALID,998.194,VALID,0,VALID,92.204,VALID,0,VALID,23.7207,VALID,354,VALID,0.48125,
2011-12-13, 02:04:04,VALID,998.183,VALID,0,VALID,92.1734,VALID,0,VALID,23.7012,VALID,354,VALID,0.630859,
2011-12-13, 02:05:04,VALID,998.163,VALID,0,VALID,92.1353,VALID,0,VALID,23.7207,VALID,354,VALID,0.75,
2011-12-13, 02:06:04,VALID,998.147,VALID,0,VALID,92.0743,VALID,0.104696,VALID,23.6994,VALID,355,VALID,0.728516,
2011-12-13, 02:07:04,VALID,998.123,VALID,0,VALID,92.0361,VALID,0,VALID,23.7012,VALID,355,VALID,0.523438,
2011-12-13, 02:08:04,VALID,998.144,VALID,0,VALID,91.9903,VALID,0,VALID,23.6622,VALID,358,VALID,0.594531,
2011-12-13, 02:09:04,VALID,998.126,VALID,0,VALID,91.9598,VALID,0,VALID,23.6019,VALID,26,VALID,0.478516,
2011-12-13, 02:10:04,VALID,998.147,VALID,0,VALID,92.0743,VALID,0,VALID,23.5646,VALID,27,VALID,0.813672,
2011-12-13, 02:11:04,VALID,998.103,VALID,0,VALID,92.2955,VALID,0,VALID,23.5646,VALID,27,VALID,0.894531,
2011-12-13, 02:12:04,VALID,998.103,VALID,0,VALID,92.4557,VALID,0.104696,VALID,23.5238,VALID,24,VALID,1.03281,
2011-12-13, 02:13:04,VALID,998.063,VALID,0,VALID,92.5931,VALID,0,VALID,23.5256,VALID,25,VALID,0.701953,
2011-12-13, 02:14:04,VALID,998.05,VALID,0,VALID,92.6846,VALID,0,VALID,23.5061,VALID,25,VALID,0.201562,
2011-12-13, 02:15:04,VALID,998.029,VALID,0,VALID,92.7457,VALID,0.104696,VALID,23.4848,VALID,25,VALID,0.397266,
2011-12-13, 02:16:04,VALID,998.019,VALID,0,VALID,92.8677,VALID,0.104696,VALID,23.4848,VALID,27,VALID,0.266797,
2011-12-13, 02:17:04,VALID,998.012,VALID,0,VALID,92.9364,VALID,0,VALID,23.4848,VALID,27,VALID,0.658984,
2011-12-13, 02:18:04,VALID,998.02,VALID,0,VALID,92.9669,VALID,0,VALID,23.4866,VALID,27,VALID,0.598437,
2011-12-13, 02:19:04,VALID,997.998,VALID,0,VALID,93.028,VALID,0,VALID,23.4653,VALID,44,VALID,0.840234,
2011-12-13, 02:20:04,VALID,998.01,VALID,0,VALID,93.0661,VALID,0,VALID,23.4848,VALID,44,VALID,0.719531,
2011-12-13, 02:21:04,VALID,997.97,VALID,0,VALID,93.0661,VALID,0,VALID,23.5043,VALID,44,VALID,0.601953,
2011-12-13, 02:22:04,VALID,998.031,VALID,0,VALID,93.0508,VALID,0,VALID,23.4866,VALID,44,VALID,0.573438,
2011-12-13, 02:23:04,VALID,998.008,VALID,0,VALID,93.0814,VALID,0,VALID,23.4866,VALID,44,VALID,0.397266,
2011-12-13, 02:24:04,VALID,997.988,VALID,0,VALID,93.0737,VALID,0,VALID,23.5061,VALID,44,VALID,0.124219,
2011-12-13, 02:25:04,VALID,997.979,VALID,0,VALID,93.0737,VALID,0,VALID,23.4653,VALID,44,VALID,0,
2011-12-13, 02:26:04,VALID,997.983,VALID,0,VALID,93.1119,VALID,0,VALID,23.4671,VALID,44,VALID,0,
2011-12-13, 02:27:04,VALID,997.973,VALID,0,VALID,93.1348,VALID,0,VALID,23.4458,VALID,44,VALID,0,
2011-12-13, 02:28:04,VALID,997.956,VALID,0,VALID,93.15,VALID,0,VALID,23.4263,VALID,44,VALID,0,
2011-12-13, 02:29:04,VALID,997.961,VALID,0,VALID,93.1653,VALID,0,VALID,23.4067,VALID,44,VALID,0,
2011-12-13, 02:30:04,VALID,997.924,VALID,0,VALID,93.1424,VALID,0,VALID,23.3695,VALID,44,VALID,0,
2011-12-13, 02:31:04,VALID,997.911,VALID,0,VALID,93.1195,VALID,0,VALID,23.35,VALID,44,VALID,0,
2011-12-13, 02:32:04,VALID,997.923,VALID,0,VALID,93.1348,VALID,0,VALID,23.3305,VALID,44,VALID,0,
2011-12-13, 02:33:04,VALID,997.912,VALID,0,VALID,93.15,VALID,0,VALID,23.2915,VALID,44,VALID,0,
2011-12-13, 02:34:04,VALID,997.918,VALID,0,VALID,93.2111,VALID,0,VALID,23.2702,VALID,44,VALID,0,
2011-12-13, 02:35:04,VALID,997.912,VALID,0,VALID,93.2416,VALID,0,VALID,23.2507,VALID,44,VALID,0,
2011-12-13, 02:36:04,VALID,997.908,VALID,0,VALID,93.3026,VALID,0,VALID,23.2507,VALID,44,VALID,0,
2011-12-13, 02:37:04,VALID,997.92,VALID,0,VALID,93.3866,VALID,0.104696,VALID,23.2312,VALID,44,VALID,0,
2011-12-13, 02:38:04,VALID,997.915,VALID,0,VALID,93.44,VALID,0,VALID,23.2312,VALID,44,VALID,0,
2011-12-13, 02:39:04,VALID,997.936,VALID,0,VALID,93.4857,VALID,0,VALID,23.2347,VALID,44,VALID,0,
2011-12-13, 02:40:04,VALID,997.934,VALID,0,VALID,93.5391,VALID,0,VALID,23.1939,VALID,44,VALID,0,
2011-12-13, 02:41:04,VALID,997.905,VALID,0,VALID,93.6002,VALID,0,VALID,23.2152,VALID,44,VALID,0,
2011-12-13, 02:42:04,VALID,997.915,VALID,0,VALID,93.6612,VALID,0,VALID,23.1939,VALID,44,VALID,0,
2011-12-13, 02:43:04,VALID,997.918,VALID,0,VALID,93.7146,VALID,0,VALID,23.2152,VALID,44,VALID,0,
2011-12-13, 02:44:04,VALID,997.911,VALID,0,VALID,93.7375,VALID,0,VALID,23.2152,VALID,44,VALID,0,
2011-12-13, 02:45:04,VALID,997.91,VALID,0,VALID,93.7604,VALID,0,VALID,23.1762,VALID,42,VALID,0,
2011-12-13, 02:46:04,VALID,997.895,VALID,0,VALID,93.7833,VALID,0,VALID,23.1371,VALID,33,VALID,0.385547,
2011-12-13, 02:47:04,VALID,997.906,VALID,0,VALID,93.8062,VALID,0,VALID,23.0964,VALID,33,VALID,1.03555,
2011-12-13, 02:48:04,VALID,997.916,VALID,0,VALID,93.8291,VALID,0,VALID,23.0769,VALID,33,VALID,1.0375,
2011-12-13, 02:49:04,VALID,997.906,VALID,0,VALID,93.8901,VALID,0,VALID,23.1371,VALID,33,VALID,1.0082,
2011-12-13, 02:50:04,VALID,997.909,VALID,0,VALID,93.9359,VALID,0,VALID,23.0964,VALID,33,VALID,1.01719,
2011-12-13, 02:51:04,VALID,997.927,VALID,0,VALID,93.9283,VALID,0,VALID,23.0591,VALID,33,VALID,1.00195,
2011-12-13, 02:52:04,VALID,997.923,VALID,0,VALID,93.9664,VALID,0,VALID,23.0591,VALID,33,VALID,1.07734,
2011-12-13, 02:53:04,VALID,997.914,VALID,0,VALID,93.9893,VALID,0,VALID,23.0396,VALID,33,VALID,0.971875,
2011-12-13, 02:54:04,VALID,997.947,VALID,0,VALID,94.0198,VALID,0,VALID,23.0378,VALID,40,VALID,0.992188,
2011-12-13, 02:55:04,VALID,997.935,VALID,0,VALID,94.0351,VALID,0,VALID,23.0378,VALID,42,VALID,1.1168,
2011-12-13, 02:56:04,VALID,997.96,VALID,0,VALID,94.0503,VALID,0,VALID,23.0573,VALID,42,VALID,1.08906,
2011-12-13, 02:57:04,VALID,997.904,VALID,0,VALID,94.0656,VALID,0,VALID,23.0573,VALID,42,VALID,1.09414,
2011-12-13, 02:58:04,VALID,997.915,VALID,0,VALID,94.058,VALID,0,VALID,23.0166,VALID,42,VALID,0.971484,
2011-12-13, 02:59:04,VALID,997.905,VALID,0,VALID,94.0961,VALID,0,VALID,23.0183,VALID,42,VALID,0.730469,
2011-12-13, 03:00:04,VALID,997.873,VALID,0,VALID,94.0961,VALID,0,VALID,23.0183,VALID,42,VALID,0.869531,
2011-12-13, 03:01:04,VALID,997.874,VALID,0,VALID,94.1037,VALID,0,VALID,22.9776,VALID,42,VALID,0.723828,
2011-12-13, 03:02:04,VALID,997.844,VALID,0,VALID,94.1114,VALID,0,VALID,22.9776,VALID,42,VALID,0.794922,
2011-12-13, 03:03:04,VALID,997.838,VALID,0,VALID,94.1419,VALID,0.104696,VALID,22.9776,VALID,42,VALID,0.828125,
2011-12-13, 03:04:04,VALID,997.829,VALID,0,VALID,94.1419,VALID,0.104696,VALID,22.9988,VALID,42,VALID,0.959766,
2011-12-13, 03:05:04,VALID,997.824,VALID,0,VALID,94.1724,VALID,0,VALID,22.9793,VALID,42,VALID,0.674609,
2011-12-13, 03:06:04,VALID,997.817,VALID,0,VALID,94.1571,VALID,0,VALID,22.9598,VALID,42,VALID,0.107813,
2011-12-13, 03:07:04,VALID,997.808,VALID,0,VALID,94.1495,VALID,0,VALID,22.8995,VALID,42,VALID,0,
2011-12-13, 03:08:04,VALID,997.827,VALID,0,VALID,94.1724,VALID,0,VALID,22.9208,VALID,42,VALID,0,
2011-12-13, 03:09:04,VALID,997.834,VALID,0,VALID,94.1495,VALID,0,VALID,22.9013,VALID,42,VALID,0,
2011-12-13, 03:10:04,VALID,997.8,VALID,0,VALID,94.1571,VALID,0,VALID,22.903,VALID,42,VALID,0,
2011-12-13, 03:11:04,VALID,997.821,VALID,0,VALID,94.18,VALID,0,VALID,22.903,VALID,42,VALID,0,
2011-12-13, 03:12:04,VALID,997.802,VALID,0,VALID,94.1877,VALID,0,VALID,22.8835,VALID,42,VALID,0,
2011-12-13, 03:13:04,VALID,997.821,VALID,0,VALID,94.1877,VALID,0,VALID,22.903,VALID,42,VALID,0,
2011-12-13, 03:14:04,VALID,997.806,VALID,0,VALID,94.2105,VALID,0,VALID,22.9225,VALID,42,VALID,0,
2011-12-13, 03:15:04,VALID,997.802,VALID,0,VALID,94.2334,VALID,0,VALID,22.9013,VALID,42,VALID,0,
2011-12-13, 03:16:04,VALID,997.805,VALID,0,VALID,94.2411,VALID,0,VALID,22.9225,VALID,42,VALID,0,
2011-12-13, 03:17:04,VALID,997.816,VALID,0,VALID,94.2716,VALID,0,VALID,22.9013,VALID,42,VALID,0,
2011-12-13, 03:18:04,VALID,997.835,VALID,0,VALID,94.2792,VALID,0,VALID,22.903,VALID,42,VALID,0,
2011-12-13, 03:19:04,VALID,997.849,VALID,0,VALID,94.2716,VALID,0,VALID,22.8818,VALID,42,VALID,0,
2011-12-13, 03:20:04,VALID,997.869,VALID,0,VALID,94.3021,VALID,0,VALID,22.8623,VALID,42,VALID,0,
2011-12-13, 03:21:04,VALID,997.881,VALID,0,VALID,94.3021,VALID,0,VALID,22.8835,VALID,42,VALID,0,
2011-12-13, 03:22:04,VALID,997.881,VALID,0,VALID,94.3021,VALID,0,VALID,22.864,VALID,42,VALID,0,
2011-12-13, 03:23:04,VALID,997.892,VALID,0,VALID,94.2945,VALID,0,VALID,22.8427,VALID,42,VALID,0,
2011-12-13, 03:24:04,VALID,997.917,VALID,0,VALID,94.3097,VALID,0,VALID,22.8427,VALID,42,VALID,0,
2011-12-13, 03:25:04,VALID,997.916,VALID,0,VALID,94.3174,VALID,0,VALID,22.864,VALID,42,VALID,0,
2011-12-13, 03:26:04,VALID,997.939,VALID,0,VALID,94.3403,VALID,0,VALID,22.8445,VALID,42,VALID,0,
2011-12-13, 03:27:04,VALID,997.902,VALID,0,VALID,94.3403,VALID,0,VALID,22.8037,VALID,42,VALID,0,
2011-12-13, 03:28:04,VALID,997.902,VALID,0,VALID,94.3097,VALID,0,VALID,22.8037,VALID,42,VALID,0,
2011-12-13, 03:29:04,VALID,997.884,VALID,0,VALID,94.3326,VALID,0,VALID,22.8818,VALID,42,VALID,0.0972656,
2011-12-13, 03:30:04,VALID,997.894,VALID,0,VALID,94.3708,VALID,0,VALID,22.9208,VALID,42,VALID,0.488672,
2011-12-13, 03:31:04,VALID,997.884,VALID,0,VALID,94.3631,VALID,0,VALID,22.9598,VALID,94,VALID,0.844141,
2011-12-13, 03:32:04,VALID,997.873,VALID,0,VALID,94.3784,VALID,0,VALID,22.9971,VALID,95,VALID,0.742969,
2011-12-13, 03:33:04,VALID,997.841,VALID,0,VALID,94.4013,VALID,0,VALID,23.0183,VALID,95,VALID,0.563281,
2011-12-13, 03:34:04,VALID,997.83,VALID,0,VALID,94.3708,VALID,0,VALID,22.9776,VALID,95,VALID,0.690625,
2011-12-13, 03:35:04,VALID,997.832,VALID,0,VALID,94.3631,VALID,0.104696,VALID,22.9988,VALID,95,VALID,0.752344,
2011-12-13, 03:36:04,VALID,997.812,VALID,0,VALID,94.3631,VALID,0,VALID,22.9988,VALID,95,VALID,0.58125,
2011-12-13, 03:37:04,VALID,997.823,VALID,0,VALID,94.386,VALID,0,VALID,22.9971,VALID,95,VALID,0.429297,
2011-12-13, 03:38:04,VALID,997.779,VALID,0,VALID,94.3784,VALID,0,VALID,22.9971,VALID,95,VALID,0.343359,
2011-12-13, 03:39:04,VALID,997.803,VALID,0,VALID,94.3937,VALID,0,VALID,22.9988,VALID,95,VALID,0.448828,
2011-12-13, 03:40:04,VALID,997.785,VALID,0,VALID,94.3784,VALID,0,VALID,23.0201,VALID,95,VALID,0.189844,
2011-12-13, 03:41:04,VALID,997.763,VALID,0,VALID,94.3784,VALID,0,VALID,23.0006,VALID,95,VALID,0.442969,
2011-12-13, 03:42:04,VALID,997.725,VALID,0,VALID,94.3631,VALID,0,VALID,23.0201,VALID,95,VALID,0.296094,
2011-12-13, 03:43:04,VALID,997.711,VALID,0,VALID,94.3937,VALID,0,VALID,23.0006,VALID,95,VALID,0.136328,
2011-12-13, 03:44:04,VALID,997.69,VALID,0,VALID,94.3708,VALID,0,VALID,22.9793,VALID,95,VALID,0.312891,
2011-12-13, 03:45:04,VALID,997.701,VALID,0,VALID,94.3784,VALID,0,VALID,22.9811,VALID,95,VALID,0.583594,
2011-12-13, 03:46:04,VALID,997.679,VALID,0,VALID,94.3708,VALID,0,VALID,23.0006,VALID,102,VALID,0.876172,
2011-12-13, 03:47:04,VALID,997.708,VALID,0,VALID,94.3784,VALID,0,VALID,23.0573,VALID,102,VALID,0.892187,
2011-12-13, 03:48:04,VALID,997.71,VALID,0,VALID,94.3784,VALID,0,VALID,23.0573,VALID,102,VALID,0.863672,
2011-12-13, 03:49:04,VALID,997.674,VALID,0,VALID,94.4013,VALID,0,VALID,23.0964,VALID,102,VALID,0.752344,